Weather History for Pueblo, CO

Change the Weather History Date:

Monday, December 10, 2012

  Actual Average Record
Temperature  
Mean Temperature 9 °F 30 °F  
Max Temperature 25 °F 46 °F 74 °F (1975)
Min Temperature -8 °F 15 °F -16 °F (1972)
Degree Days  
Heating Degree Days 56 35  
Month to date heating degree days 286 337  
Since 1 July heating degree days 1424 1618  
Cooling Degree Days 0 0  
Month to date cooling degree days 0 0  
Year to date cooling degree days 1322 897  
Moisture  
Dew Point 0 °F    
Average Humidity 73    
Maximum Humidity 91    
Minimum Humidity 55    
Precipitation  
Precipitation 0.00 in 0.02 in 0.32 in (1961)
Month to date precipitation 0.19 0.14  
Year to date precipitation 4.89 12.33  
Snow  
Snow 0.00 in 0.20 in 6.70 in (1961)
Month to date snowfall 2.3 1.8  
Since 1 July snowfall 3.9 7.8  
Snow Depth 1.00 in    
Sea Level Pressure  
Sea Level Pressure 30.11 in    
Wind  
Wind Speed 3 mph (North)    
Max Wind Speed 12 mph    
Max Gust Speed 14 mph    
Visibility 7 miles    
Events Fog    
T = Trace of Precipitation, MM = Missing Value Source: NWS Daily Summary

Daily Weather History Graph

Daily Weather History Graph

Search for Another Location

Airport:

Trip Planner

Search our weather history database for the weather conditions in past years. The results will help you decide how hot, cold, wet, or windy it might be!

Date:

Astronomy

Dec. 10, 2012 Rise Set
Actual Time 7:04 AM MST 4:37 PM MST
Civil Twilight 6:34 AM MST 5:07 PM MST
Nautical Twilight 6:01 AM MST 5:40 PM MST
Astronomical Twilight 5:29 AM MST 6:12 PM MST
Moon 3:52 AM MST (12/10) 2:27 PM MST (12/10)
Length of Visible Light 10h 32m
Length of Day
9h 33m
Waning Crescent, 10% of the Moon is Illuminated
Dec 10
Waning Crescent
Dec 13
New
Dec 19
First Quarter
Dec 28
Full
Jan 4
Last Quarter

Hourly Weather History & Observations

Time (MST) Temp. Windchill Dew Point Humidity Pressure Visibility Wind Dir Wind Speed Gust Speed Precip Events Conditions
12:28 AM 1.4 °F -6.2 °F -0.4 °F 92% 30.10 in 0.2 mi NW 3.5 mph - N/A Fog Light Freezing Fog
12:39 AM 3.2 °F - -0.4 °F 85% 30.09 in 0.2 mi Calm Calm - N/A Fog Light Freezing Fog
12:53 AM 3.0 °F - -0.0 °F 87% 30.27 in 0.2 mi Calm Calm - N/A Fog Light Freezing Fog
1:13 AM 1.4 °F -8.3 °F -4.0 °F 78% 30.06 in 0.2 mi NNW 4.6 mph - N/A   Haze
1:53 AM -4.0 °F - -7.1 °F 87% 30.26 in 0.5 mi Calm Calm - N/A Fog Light Freezing Fog
1:59 AM -2.2 °F - -5.8 °F 85% 30.04 in 1.5 mi Calm Calm - N/A   Scattered Clouds
2:03 AM -4.0 °F - -7.6 °F 85% 30.04 in 3.0 mi Calm Calm - N/A   Scattered Clouds
2:10 AM -2.2 °F - -7.6 °F 78% 30.04 in 1.5 mi Calm Calm - N/A   Mostly Cloudy
2:19 AM -2.2 °F -10.4 °F -5.8 °F 85% 30.04 in 0.5 mi NNE 3.5 mph - N/A Fog Light Freezing Fog
2:27 AM -4.0 °F -12.4 °F -7.6 °F 85% 30.04 in 0.5 mi North 3.5 mph - N/A Fog Light Freezing Fog
2:36 AM -4.0 °F - -7.6 °F 85% 30.03 in 0.2 mi Calm Calm - N/A Fog Light Freezing Fog
2:46 AM -4.0 °F - -7.6 °F 85% 30.03 in 0.5 mi Calm Calm - N/A Fog Light Freezing Fog
2:53 AM -5.1 °F - -8.0 °F 87% 30.25 in 0.5 mi Calm Calm - N/A Fog Light Freezing Fog
3:01 AM -5.8 °F - -9.4 °F 84% 30.02 in 2.5 mi Calm Calm - N/A   Clear
3:09 AM -7.6 °F - -11.2 °F 84% 30.02 in 7.0 mi Calm Calm - N/A   Clear
3:16 AM -7.6 °F - -11.2 °F 84% 30.02 in 2.5 mi Calm Calm - N/A   Partly Cloudy
3:31 AM -5.8 °F - -9.4 °F 84% 30.01 in 6.0 mi Calm Calm - N/A   Haze
3:53 AM -6.0 °F -14.7 °F -9.9 °F 83% 30.23 in 10.0 mi WNW 3.5 mph - N/A   Clear
4:53 AM -6.0 °F - -9.9 °F 83% 30.22 in 10.0 mi Calm Calm - N/A   Clear
5:53 AM -5.1 °F - -9.9 °F 80% 30.25 in 10.0 mi Calm Calm - N/A   Clear
6:53 AM -7.1 °F - -11.9 °F 79% 30.27 in 10.0 mi Calm Calm - N/A   Clear
7:53 AM -2.0 °F -12.2 °F -7.1 °F 79% 30.22 in 10.0 mi North 4.6 mph - N/A   Clear
8:53 AM 6.1 °F - 3.9 °F 91% 30.18 in 10.0 mi Calm Calm - N/A   Clear
9:53 AM 10.9 °F 2.9 °F 6.1 °F 81% 30.16 in 10.0 mi East 4.6 mph - 0.00 in   Clear
10:53 AM 16.0 °F - 8.1 °F 71% 30.13 in 10.0 mi Calm Calm - N/A   Clear
11:53 AM 19.0 °F 12.3 °F 7.0 °F 59% 30.07 in 10.0 mi ENE 4.6 mph - N/A   Clear
12:53 PM 24.1 °F 19.7 °F 10.9 °F 57% 30.03 in 10.0 mi East 3.5 mph - N/A   Clear
1:53 PM 24.1 °F 17.0 °F 12.9 °F 62% 30.04 in 10.0 mi East 5.8 mph - N/A   Clear
2:53 PM 21.9 °F 14.5 °F 12.9 °F 68% 30.04 in 10.0 mi East 5.8 mph - N/A   Clear
3:53 PM 21.9 °F 17.2 °F 14.0 °F 72% 30.06 in 10.0 mi NNE 3.5 mph - N/A   Clear
4:53 PM 19.0 °F 9.0 °F 12.0 °F 74% 30.09 in 10.0 mi NNW 8.1 mph - N/A   Clear
5:53 PM 16.0 °F 3.6 °F 9.0 °F 74% 30.10 in 10.0 mi NNW 10.4 mph - N/A   Partly Cloudy
6:53 PM 16.0 °F - 9.0 °F 74% 30.13 in 10.0 mi Calm Calm - N/A   Clear
7:53 PM 16.0 °F - 10.0 °F 77% 30.14 in 10.0 mi Calm Calm - N/A   Clear
8:53 PM 10.9 °F 0.2 °F 5.0 °F 77% 30.13 in 10.0 mi West 6.9 mph - N/A   Clear
9:53 PM 12.9 °F 2.6 °F 7.0 °F 77% 30.12 in 10.0 mi West 6.9 mph - N/A   Scattered Clouds
10:53 PM 17.1 °F - 9.0 °F 71% 30.12 in 10.0 mi Calm Calm - N/A   Mostly Cloudy
11:53 PM 12.0 °F - 6.1 °F 77% 30.13 in 10.0 mi Calm Calm - N/A   Mostly Cloudy